| time (UTC) | temp F | wind direction | speed MPH | gust MPH | rain 1hr in | rain 24hr in | rain mn in | humidity % | barometer mb |
| 20260905204552 | 63 | 126 | 3.0 | 7.0 | 0.00 | 0.00 | 0.00 | 88 | 1011.1 |
| 20260905203051 | 63 | 137 | 4.0 | 9.0 | 0.00 | 0.00 | 0.00 | 89 | 1011.0 |
| 20260905201550 | 63 | 134 | 4.0 | 9.0 | 0.00 | 0.00 | 0.00 | 90 | 1011.0 |
| 20260905200054 | 63 | 145 | 3.0 | 7.0 | 0.00 | 0.00 | 0.00 | 91 | 1010.9 |
| 20260905194552 | 63 | 148 | 3.0 | 11.0 | 0.00 | 0.00 | 0.00 | 90 | 1010.8 |
| 20260905193045 | 64 | 98 | 9.0 | 14.0 | 0.00 | 0.00 | 0.00 | 88 | 1011.0 |
| 20260905191546 | 65 | 106 | 14.0 | 18.0 | 0.00 | 0.00 | 0.00 | 82 | 1010.8 |
| 20260905190050 | 66 | 119 | 8.0 | 14.0 | 0.00 | 0.00 | 0.00 | 82 | 1010.7 |
| 20260905184532 | 66 | 126 | 5.0 | 10.0 | 0.00 | 0.00 | 0.00 | 82 | 1010.6 |
| 20260905183028 | 67 | 120 | 8.0 | 14.0 | 0.00 | 0.00 | 0.00 | 79 | 1010.5 |
| 20260905181530 | 67 | 80 | 8.0 | 11.0 | 0.00 | 0.00 | 0.00 | 77 | 1010.5 |
| 20260905180027 | 66 | 69 | 9.0 | 12.0 | 0.00 | 0.00 | 0.00 | 77 | 1010.5 |
| 20260905174527 | 66 | 96 | 6.0 | 12.0 | 0.00 | 0.00 | 0.00 | 81 | 1010.4 |
| 20260905173028 | 65 | 90 | 8.0 | 14.0 | 0.00 | 0.00 | 0.00 | 81 | 1010.4 |
| 20260905171526 | 65 | 85 | 8.0 | 16.0 | 0.00 | 0.00 | 0.00 | 81 | 1010.5 |
| 20260905170025 | 64 | 67 | 10.0 | 14.0 | 0.00 | 0.00 | 0.00 | 82 | 1010.5 |
| 20260905164517 | 64 | 87 | 13.0 | 17.0 | 0.00 | 0.00 | 0.00 | 84 | 1010.5 |
| 20260905163013 | 64 | 44 | 11.0 | 25.0 | 0.00 | 0.00 | 0.00 | 86 | 1010.4 |
| 20260905161511 | 66 | 86 | 16.0 | 23.0 | 0.00 | 0.00 | 0.00 | 81 | 1010.3 |
| 20260905160011 | 67 | 91 | 13.0 | 21.0 | 0.00 | 0.00 | 0.00 | 79 | 1010.2 |
| 20260905154508 | 67 | 85 | 11.0 | 16.0 | 0.00 | 0.00 | 0.00 | 79 | 1010.3 |
| 20260905153006 | 67 | 89 | 10.0 | 14.0 | 0.00 | 0.00 | 0.00 | 79 | 1010.1 |
| 20260905151506 | 67 | 74 | 9.0 | 13.0 | 0.00 | 0.00 | 0.00 | 79 | 1010.0 |
| 20260905150004 | 67 | 74 | 6.0 | 11.0 | 0.00 | 0.00 | 0.00 | 79 | 1010.3 |
| 20260905144552 | 67 | 58 | 10.0 | 12.0 | 0.00 | 0.00 | 0.00 | 77 | 1010.1 |
| 20260905143049 | 68 | 71 | 7.0 | 10.0 | 0.00 | 0.00 | 0.00 | 76 | 1010.1 |
| 20260905141555 | 67 | 79 | 8.0 | 14.0 | 0.00 | 0.00 | 0.00 | 75 | 1010.0 |
| 20260905140047 | 68 | 67 | 11.0 | 15.0 | 0.00 | 0.00 | 0.00 | 76 | 1009.9 |
| 20260905134546 | 67 | 34 | 6.0 | 10.0 | 0.00 | 0.00 | 0.00 | 78 | 1009.8 |
| 20260905133044 | 67 | 49 | 5.0 | 9.0 | 0.00 | 0.00 | 0.00 | 79 | 1009.6 |
| 20260905131558 | 66 | 44 | 5.0 | 10.0 | 0.00 | 0.00 | 0.00 | 81 | 1009.4 |
| 20260905130049 | 66 | 38 | 6.0 | 9.0 | 0.00 | 0.00 | 0.00 | 81 | 1009.3 |
| 20260905124526 | 65 | 43 | 3.0 | 7.0 | 0.00 | 0.00 | 0.00 | 83 | 1009.3 |
| 20260905123021 | 65 | 348 | 2.0 | 5.0 | 0.00 | 0.00 | 0.00 | 85 | 1009.2 |
| 20260905121510 | 64 | 350 | 2.0 | 4.0 | 0.00 | 0.00 | 0.00 | 86 | 1009.2 |
| 20260905120009 | 64 | 19 | 1.0 | 3.0 | 0.00 | 0.00 | 0.00 | 86 | 1009.1 |
| 20260905114508 | 64 | 32 | 2.0 | 6.0 | 0.00 | 0.00 | 0.00 | 86 | 1009.0 |
| 20260905113012 | 64 | 55 | 4.0 | 7.0 | 0.00 | 0.00 | 0.00 | 85 | 1008.9 |
| 20260905111505 | 64 | 338 | 3.0 | 5.0 | 0.00 | 0.00 | 0.00 | 85 | 1008.6 |
| 20260905110005 | 64 | 321 | 4.0 | 8.0 | 0.00 | 0.00 | 0.00 | 85 | 1008.5 |
| 20260905104503 | 64 | 360 | 4.0 | 7.0 | 0.00 | 0.00 | 0.00 | 85 | 1008.3 |
| 20260905103006 | 64 | 355 | 4.0 | 7.0 | 0.00 | 0.00 | 0.00 | 85 | 1008.2 |
| 20260905101502 | 64 | 321 | 4.0 | 7.0 | 0.00 | 0.00 | 0.00 | 85 | 1008.1 |
| 20260905100050 | 64 | 325 | 5.0 | 8.0 | 0.00 | 0.00 | 0.00 | 84 | 1007.9 |
| 20260905094549 | 64 | 360 | 4.0 | 8.0 | 0.00 | 0.00 | 0.00 | 84 | 1007.8 |
| 20260905093048 | 64 | 327 | 5.0 | 8.0 | 0.00 | 0.00 | 0.00 | 84 | 1007.8 |
| 20260905091547 | 64 | 321 | 4.0 | 7.0 | 0.00 | 0.00 | 0.00 | 84 | 1007.8 |
| 20260905090045 | 64 | 318 | 4.0 | 8.0 | 0.00 | 0.00 | 0.00 | 83 | 1007.5 |
| 20260905084544 | 65 | 317 | 5.0 | 7.0 | 0.00 | 0.00 | 0.00 | 83 | 1007.6 |
| 20260905083042 | 65 | 296 | 5.0 | 10.0 | 0.00 | 0.00 | 0.00 | 82 | 1007.5 |
| 20260905081541 | 65 | 311 | 5.0 | 8.0 | 0.00 | 0.00 | 0.00 | 81 | 1007.6 |
| 20260905080020 | 65 | 336 | 4.0 | 9.0 | 0.00 | 0.00 | 0.00 | 81 | 1007.6 |
| 20260905074519 | 65 | 324 | 6.0 | 9.0 | 0.00 | 0.00 | 0.00 | 81 | 1007.6 |
| 20260905073105 | 66 | 319 | 5.0 | 9.0 | 0.00 | 0.00 | 0.00 | 80 | 1007.6 |
| 20260905071559 | 66 | 311 | 3.0 | 6.0 | 0.00 | 0.00 | 0.00 | 79 | 1007.6 |
| 20260905070046 | 66 | 298 | 1.0 | 4.0 | 0.00 | 0.00 | 0.00 | 78 | 1007.7 |
| 20260905064544 | 67 | 312 | 2.0 | 5.0 | 0.00 | 0.00 | 0.00 | 77 | 1007.8 |
| 20260905063043 | 67 | 304 | 1.0 | 6.0 | 0.00 | 0.00 | 0.00 | 77 | 1007.9 |
| 20260905061542 | 67 | 290 | 4.0 | 7.0 | 0.00 | 0.00 | 0.00 | 76 | 1007.9 |
| 20260905060042 | 67 | 316 | 4.0 | 8.0 | 0.00 | 0.00 | 0.00 | 76 | 1008.0 |
| 20260905054546 | 67 | 360 | 3.0 | 7.0 | 0.00 | 0.00 | 0.00 | 76 | 1008.0 |
| 20260905053055 | 67 | 304 | 4.0 | 7.0 | 0.00 | 0.00 | 0.00 | 76 | 1008.0 |
| 20260905051540 | 67 | 297 | 4.0 | 7.0 | 0.00 | 0.00 | 0.00 | 76 | 1008.1 |
| 20260905050021 | 68 | 360 | 3.0 | 5.0 | 0.00 | 0.00 | 0.00 | 76 | 1007.9 |
| 20260905044522 | 68 | 309 | 1.0 | 4.0 | 0.00 | 0.00 | 0.00 | 75 | 1007.9 |
| 20260905043026 | 68 | 304 | 2.0 | 6.0 | 0.00 | 0.00 | 0.00 | 75 | 1008.1 |
| 20260905041517 | 69 | 315 | 3.0 | 5.0 | 0.00 | 0.00 | 0.00 | 74 | 1007.9 |
| 20260905040020 | 69 | 331 | 3.0 | 8.0 | 0.00 | 0.00 | 0.00 | 72 | 1008.0 |
| 20260905034514 | 69 | 344 | 3.0 | 8.0 | 0.00 | 0.00 | 0.00 | 72 | 1008.0 |
| 20260905033012 | 70 | 290 | 4.0 | 7.0 | 0.00 | 0.00 | 0.00 | 71 | 1008.1 |
| 20260905031510 | 70 | 328 | 3.0 | 6.0 | 0.00 | 0.00 | 0.00 | 71 | 1008.1 |
| 20260905030057 | 70 | 317 | 3.0 | 6.0 | 0.00 | 0.00 | 0.00 | 70 | 1008.3 |
| 20260905024610 | 71 | 325 | 2.0 | 6.0 | 0.00 | 0.00 | 0.00 | 69 | 1008.2 |
| 20260905023105 | 71 | 274 | 3.0 | 6.0 | 0.00 | 0.00 | 0.00 | 69 | 1008.2 |
| 20260905021553 | 71 | 297 | 2.0 | 5.0 | 0.00 | 0.00 | 0.00 | 70 | 1008.5 |
| 20260905020105 | 71 | 269 | 0.0 | 5.0 | 0.00 | 0.00 | 0.00 | 69 | 1008.5 |
| 20260905014553 | 71 | 311 | 4.0 | 6.0 | 0.00 | 0.00 | 0.00 | 69 | 1008.6 |
| 20260905013050 | 72 | 300 | 3.0 | 7.0 | 0.00 | 0.00 | 0.00 | 70 | 1008.5 |
| 20260905011550 | 72 | 301 | 1.0 | 4.0 | 0.00 | 0.00 | 0.00 | 70 | 1008.6 |
| 20260905010044 | 72 | 305 | 1.0 | 5.0 | 0.00 | 0.00 | 0.00 | 68 | 1008.7 |
| 20260905004548 | 73 | 298 | 1.0 | 5.0 | 0.00 | 0.00 | 0.00 | 68 | 1008.6 |
| 20260905003046 | 73 | 342 | 4.0 | 8.0 | 0.00 | 0.00 | 0.00 | 66 | 1008.6 |
| 20260905001543 | 74 | 285 | 3.0 | 7.0 | 0.00 | 0.00 | 0.00 | 66 | 1008.4 |
| 20260905000041 | 74 | 316 | 4.0 | 7.0 | 0.00 | 0.00 | 0.00 | 65 | 1008.3 |
| 20260904234539 | 74 | 321 | 4.0 | 7.0 | 0.00 | 0.00 | 0.00 | 65 | 1008.0 |
| 20260904233028 | 74 | 340 | 4.0 | 7.0 | 0.00 | 0.00 | 0.00 | 67 | 1008.1 |
| 20260904231534 | 74 | 327 | 3.0 | 6.0 | 0.00 | 0.00 | 0.00 | 67 | 1007.8 |
| 20260904230026 | 75 | 323 | 2.0 | 3.0 | 0.00 | 0.00 | 0.00 | 70 | 1007.9 |
| 20260904224526 | 75 | 305 | 1.0 | 2.0 | 0.00 | 0.00 | 0.00 | 72 | 1007.9 |
| 20260904223027 | 74 | 332 | 0.0 | 2.0 | 0.00 | 0.00 | 0.00 | 75 | 1007.8 |
| 20260904221520 | 73 | 53 | 0.0 | 2.0 | 0.00 | 0.00 | 0.00 | 80 | 1007.7 |
| 20260904220020 | 74 | 140 | 1.0 | 2.0 | 0.00 | 0.00 | 0.00 | 79 | 1007.6 |
| 20260904214529 | 74 | 135 | 3.0 | 4.0 | 0.00 | 0.00 | 0.00 | 79 | 1007.7 |
| 20260904213006 | 73 | 172 | 1.0 | 4.0 | 0.00 | 0.00 | 0.00 | 81 | 1007.8 |
| 20260904211506 | 73 | 139 | 3.0 | 5.0 | 0.00 | 0.00 | 0.00 | 80 | 1007.8 |
| 20260904210021 | 73 | 127 | 1.0 | 5.0 | 0.00 | 0.00 | 0.00 | 81 | 1007.8 |